This is the latest recevied weather packets stored in our database for station/object K7SKM. If no packets are shown the sender has not sent any weather packets the latest 10 day(s).
| Time | Temp. | Humidity | Pressure | Rain* | Wind** | Luminosity | Snow |
|---|---|---|---|---|---|---|---|
| 1788145966 | 17.78° C | 56% | 1021.9 hPa | 0 mm | - | 0 W/m² | - |
| 1788145660 | 18.33° C | 55% | 1021.8 hPa | 0 mm | - | 0 W/m² | - |
| 1788145359 | 18.33° C | 55% | 1021.9 hPa | 0 mm | - | 0 W/m² | - |
| 1788145058 | 18.33° C | 54% | 1021.9 hPa | 0 mm | - | 0 W/m² | - |
| 1788144753 | 18.33° C | 53% | 1022 hPa | 0 mm | - | 0 W/m² | - |
| 1788144449 | 18.89° C | 53% | 1022.1 hPa | 0 mm | - | 0 W/m² | - |
| 1788144147 | 18.89° C | 52% | 1022 hPa | 0 mm | - | 2 W/m² | - |
| 1788143847 | 19.44° C | 51% | 1022 hPa | 0 mm | - | 4 W/m² | - |
| 1788143546 | 19.44° C | 50% | 1022.2 hPa | 0 mm | - | 6 W/m² | - |
| 1788143241 | 20° C | 50% | 1022.1 hPa | 0 mm | - | 8 W/m² | - |
| 1788142935 | 20° C | 50% | 1022.1 hPa | 0 mm | - | 9 W/m² | - |
| 1788142635 | 20° C | 49% | 1022.1 hPa | 0 mm | - | 11 W/m² | - |
| 1788142329 | 20° C | 49% | 1022.2 hPa | 0 mm | - | 12 W/m² | - |
| 1788142026 | 20° C | 50% | 1022.1 hPa | 0 mm | - | 13 W/m² | - |
| 1788141725 | 20.56° C | 50% | 1022.3 hPa | 0 mm | - | 16 W/m² | - |
| 1788141421 | 20.56° C | 50% | 1022.3 hPa | 0 mm | - | 18 W/m² | - |
| 1788141115 | 20.56° C | 49% | 1022.4 hPa | 0 mm | - | 20 W/m² | - |
| 1788140810 | 20.56° C | 49% | 1022.4 hPa | 0 mm | - | 22 W/m² | - |
| 1788140505 | 21.11° C | 48% | 1022.5 hPa | 0 mm | - | 23 W/m² | - |
| 1788140202 | 21.11° C | 48% | 1022.4 hPa | 0 mm | - | 25 W/m² | - |
| 1788139901 | 21.67° C | 46% | 1022.5 hPa | 0 mm | - | 33 W/m² | - |
| 1788139596 | 22.22° C | 45% | 1022.7 hPa | 0 mm | - | 43 W/m² | - |
| 1788139292 | 22.78° C | 43% | 1022.4 hPa | 0 mm | - | 44 W/m² | - |
| 1788138990 | 23.33° C | 43% | 1022.6 hPa | 0 mm | - | 157 W/m² | - |
| 1788138686 | 24.44° C | 42% | 1022.5 hPa | 0 mm | - | 172 W/m² | - |
* Rain latest hour (hover to see other rain measurements)
** Current wind speed in m/s (hover to see current wind gust speed)